| time (UTC) | temp F | wind direction | speed knots | gust knots | rain 1hr in | rain 24hr in | rain mn in | humidity % | barometer mb |
| 20260505041521 | 73 | 208 | 2.6 | 8.7 | 0.00 | 0.00 | 0.00 | 76 | 1007.1 |
| 20260505041006 | 73 | 195 | 2.6 | 11.3 | 0.00 | 0.00 | 0.00 | 76 | 1007.0 |
| 20260505040506 | 73 | 169 | 2.6 | 12.2 | 0.00 | 0.00 | 0.00 | 75 | 1007.2 |
| 20260505040036 | 73 | 202 | 3.5 | 12.2 | 0.00 | 0.00 | 0.00 | 75 | 1007.1 |
| 20260505035507 | 73 | 182 | 2.6 | 8.7 | 0.00 | 0.00 | 0.00 | 75 | 1007.0 |
| 20260505035007 | 73 | 155 | 4.3 | 8.7 | 0.00 | 0.00 | 0.00 | 75 | 1006.9 |
| 20260505034524 | 74 | 215 | 1.7 | 8.7 | 0.00 | 0.00 | 0.00 | 74 | 1007.0 |
| 20260505034012 | 74 | 169 | 2.6 | 8.7 | 0.00 | 0.00 | 0.00 | 74 | 1006.9 |
| 20260505033507 | 74 | 197 | 2.6 | 7.0 | 0.00 | 0.00 | 0.00 | 74 | 1007.0 |
| 20260505033031 | 74 | 158 | 0.9 | 7.8 | 0.00 | 0.00 | 0.00 | 74 | 1007.1 |
| 20260505032504 | 74 | 360 | 1.7 | 12.2 | 0.00 | 0.00 | 0.00 | 74 | 1007.1 |
| 20260505032006 | 74 | 226 | 2.6 | 12.2 | 0.00 | 0.00 | 0.00 | 73 | 1007.1 |
| 20260505031514 | 74 | 149 | 3.5 | 9.6 | 0.00 | 0.00 | 0.00 | 73 | 1007.1 |
| 20260505031005 | 74 | 360 | 0.9 | 7.8 | 0.00 | 0.00 | 0.00 | 73 | 1007.1 |
| 20260505030506 | 74 | 360 | 2.6 | 9.6 | 0.00 | 0.00 | 0.00 | 73 | 1007.1 |
| 20260505030026 | 74 | 217 | 2.6 | 10.4 | 0.00 | 0.00 | 0.00 | 73 | 1007.1 |
| 20260505025508 | 74 | 193 | 3.5 | 10.4 | 0.00 | 0.00 | 0.00 | 73 | 1007.1 |
| 20260505025011 | 74 | 196 | 0.9 | 8.7 | 0.00 | 0.00 | 0.00 | 73 | 1007.0 |
| 20260505024522 | 74 | 191 | 1.7 | 7.0 | 0.00 | 0.00 | 0.00 | 72 | 1007.1 |
| 20260505024007 | 74 | 196 | 0.9 | 7.8 | 0.00 | 0.00 | 0.00 | 72 | 1007.0 |
| 20260505023508 | 74 | 199 | 2.6 | 7.8 | 0.00 | 0.00 | 0.00 | 72 | 1006.9 |
| 20260505023024 | 75 | 138 | 1.7 | 6.1 | 0.00 | 0.00 | 0.00 | 72 | 1006.8 |
| 20260505022509 | 75 | 171 | 1.7 | 6.1 | 0.00 | 0.00 | 0.00 | 72 | 1007.0 |
| 20260505022011 | 75 | 360 | 0.9 | 5.2 | 0.00 | 0.00 | 0.00 | 72 | 1007.0 |
| 20260505021512 | 75 | 204 | 2.6 | 7.0 | 0.00 | 0.00 | 0.00 | 71 | 1006.9 |
| 20260505021005 | 75 | 158 | 1.7 | 10.4 | 0.00 | 0.00 | 0.00 | 71 | 1007.0 |
| 20260505020505 | 75 | 210 | 2.6 | 10.4 | 0.00 | 0.00 | 0.00 | 71 | 1006.9 |
| 20260505020019 | 75 | 360 | 3.5 | 10.4 | 0.00 | 0.00 | 0.00 | 71 | 1006.9 |
| 20260505015506 | 75 | 195 | 1.7 | 7.8 | 0.00 | 0.00 | 0.00 | 71 | 1007.0 |
| 20260505015008 | 75 | 217 | 1.7 | 7.8 | 0.00 | 0.00 | 0.00 | 70 | 1006.9 |
| 20260505014524 | 75 | 210 | 1.7 | 7.0 | 0.00 | 0.00 | 0.00 | 70 | 1006.9 |
| 20260505014008 | 76 | 178 | 1.7 | 7.0 | 0.00 | 0.00 | 0.00 | 70 | 1006.9 |
| 20260505013507 | 76 | 154 | 0.9 | 7.0 | 0.00 | 0.00 | 0.00 | 70 | 1007.0 |
| 20260505013029 | 76 | 159 | 0.9 | 8.7 | 0.00 | 0.00 | 0.00 | 69 | 1007.0 |
| 20260505012508 | 76 | 222 | 1.7 | 8.7 | 0.00 | 0.00 | 0.00 | 69 | 1007.0 |
| 20260505012010 | 76 | 194 | 1.7 | 8.7 | 0.00 | 0.00 | 0.00 | 69 | 1006.9 |
| 20260505011528 | 76 | 161 | 1.7 | 8.7 | 0.00 | 0.00 | 0.00 | 68 | 1007.0 |
| 20260505011010 | 76 | 360 | 2.6 | 9.6 | 0.00 | 0.00 | 0.00 | 68 | 1006.9 |
| 20260505010502 | 77 | 175 | 1.7 | 9.6 | 0.00 | 0.00 | 0.00 | 68 | 1006.7 |
| 20260505010018 | 77 | 190 | 2.6 | 9.6 | 0.00 | 0.00 | 0.00 | 67 | 1006.7 |
| 20260505005506 | 77 | 127 | 2.6 | 9.6 | 0.00 | 0.00 | 0.00 | 67 | 1006.7 |
| 20260505005006 | 77 | 143 | 1.7 | 8.7 | 0.00 | 0.00 | 0.00 | 66 | 1006.8 |
| 20260505004520 | 77 | 360 | 4.3 | 8.7 | 0.00 | 0.00 | 0.00 | 66 | 1006.8 |
| 20260505004007 | 78 | 211 | 2.6 | 8.7 | 0.00 | 0.00 | 0.00 | 65 | 1006.9 |
| 20260505003513 | 78 | 104 | 1.7 | 8.7 | 0.00 | 0.00 | 0.00 | 65 | 1006.9 |
| 20260505003023 | 78 | 173 | 1.7 | 9.6 | 0.00 | 0.00 | 0.00 | 65 | 1006.9 |
| 20260505002509 | 79 | 189 | 0.9 | 11.3 | 0.00 | 0.00 | 0.00 | 64 | 1006.9 |
| 20260505002008 | 79 | 165 | 3.5 | 11.3 | 0.00 | 0.00 | 0.00 | 64 | 1006.9 |
| 20260505001526 | 79 | 126 | 2.6 | 8.7 | 0.00 | 0.00 | 0.00 | 63 | 1007.0 |
| 20260505001009 | 79 | 204 | 3.5 | 8.7 | 0.00 | 0.00 | 0.00 | 63 | 1007.0 |
| 20260505000507 | 79 | 124 | 1.7 | 10.4 | 0.00 | 0.00 | 0.00 | 63 | 1007.0 |
| 20260505000029 | 79 | 196 | 3.5 | 10.4 | 0.00 | 0.00 | 0.00 | 63 | 1007.0 |
| 20260504235504 | 79 | 310 | 3.5 | 7.8 | 0.00 | 0.00 | 0.00 | 63 | 1007.1 |
| 20260504235004 | 79 | 294 | 0.9 | 13.0 | 0.00 | 0.00 | 0.00 | 63 | 1007.2 |
| 20260504234513 | 79 | 163 | 3.5 | 16.5 | 0.00 | 0.00 | 0.00 | 63 | 1007.2 |
| 20260504234002 | 79 | 185 | 3.5 | 16.5 | 0.00 | 0.00 | 0.00 | 62 | 1007.1 |
| 20260504233503 | 79 | 360 | 4.3 | 16.5 | 0.00 | 0.00 | 0.00 | 62 | 1007.0 |
| 20260504233007 | 80 | 360 | 3.5 | 10.4 | 0.00 | 0.00 | 0.00 | 62 | 1007.2 |
| 20260504232504 | 80 | 213 | 2.6 | 9.6 | 0.00 | 0.00 | 0.00 | 61 | 1007.1 |
| 20260504232003 | 80 | 221 | 2.6 | 9.6 | 0.00 | 0.00 | 0.00 | 61 | 1007.1 |
| 20260504231507 | 81 | 226 | 2.6 | 10.4 | 0.00 | 0.00 | 0.00 | 60 | 1007.3 |
| 20260504231004 | 82 | 360 | 3.5 | 10.4 | 0.00 | 0.00 | 0.00 | 59 | 1007.3 |
| 20260504230503 | 82 | 175 | 4.3 | 10.4 | 0.00 | 0.00 | 0.00 | 59 | 1007.3 |
| 20260504230011 | 82 | 232 | 3.5 | 10.4 | 0.00 | 0.00 | 0.00 | 60 | 1007.3 |
| 20260504225503 | 82 | 179 | 2.6 | 12.2 | 0.00 | 0.00 | 0.00 | 59 | 1007.5 |
| 20260504225004 | 81 | 360 | 2.6 | 12.2 | 0.00 | 0.00 | 0.00 | 59 | 1007.5 |
| 20260504224506 | 81 | 360 | 3.5 | 13.0 | 0.00 | 0.00 | 0.00 | 59 | 1007.5 |
| 20260504223518 | 82 | 142 | 3.5 | 13.9 | 0.00 | 0.00 | 0.00 | 58 | 1007.5 |
| 20260504223009 | 82 | 360 | 3.5 | 13.9 | 0.00 | 0.00 | 0.00 | 58 | 1007.3 |
| 20260504222505 | 82 | 360 | 4.3 | 13.0 | 0.00 | 0.00 | 0.00 | 58 | 1007.5 |
| 20260504222003 | 82 | 360 | 3.5 | 13.0 | 0.00 | 0.00 | 0.00 | 58 | 1007.4 |
| 20260504221506 | 82 | 195 | 5.2 | 13.0 | 0.00 | 0.00 | 0.00 | 58 | 1007.6 |
| 20260504221003 | 82 | 159 | 6.1 | 13.0 | 0.00 | 0.00 | 0.00 | 58 | 1007.6 |
| 20260504220504 | 82 | 360 | 4.3 | 13.9 | 0.00 | 0.00 | 0.00 | 58 | 1007.8 |
| 20260504220006 | 82 | 360 | 3.5 | 13.9 | 0.00 | 0.00 | 0.00 | 57 | 1007.8 |
| 20260504215504 | 83 | 360 | 4.3 | 11.3 | 0.00 | 0.00 | 0.00 | 57 | 1008.0 |
| 20260504215004 | 82 | 115 | 0.9 | 13.0 | 0.00 | 0.00 | 0.00 | 59 | 1007.9 |
| 20260504214509 | 82 | 165 | 1.7 | 13.0 | 0.00 | 0.00 | 0.00 | 58 | 1008.0 |
| 20260504214004 | 82 | 360 | 3.5 | 11.3 | 0.00 | 0.00 | 0.00 | 57 | 1008.2 |
| 20260504213504 | 82 | 196 | 2.6 | 13.9 | 0.00 | 0.00 | 0.00 | 57 | 1008.2 |
| 20260504213009 | 82 | 99 | 5.2 | 13.9 | 0.00 | 0.00 | 0.00 | 57 | 1008.1 |
| 20260504212504 | 82 | 360 | 2.6 | 12.2 | 0.00 | 0.00 | 0.00 | 57 | 1008.3 |
| 20260504212003 | 82 | 130 | 3.5 | 14.8 | 0.00 | 0.00 | 0.00 | 56 | 1008.8 |
| 20260504211509 | 82 | 360 | 3.5 | 14.8 | 0.00 | 0.00 | 0.00 | 57 | 1008.5 |
| 20260504211005 | 82 | 182 | 5.2 | 13.9 | 0.00 | 0.00 | 0.00 | 56 | 1009.0 |
| 20260504210505 | 82 | 360 | 4.3 | 10.4 | 0.00 | 0.00 | 0.00 | 55 | 1008.9 |
| 20260504210005 | 82 | 182 | 4.3 | 13.9 | 0.00 | 0.00 | 0.00 | 56 | 1008.8 |
| 20260504205505 | 82 | 360 | 6.1 | 14.8 | 0.00 | 0.00 | 0.00 | 55 | 1009.0 |
| 20260504205005 | 82 | 360 | 4.3 | 16.5 | 0.00 | 0.00 | 0.00 | 55 | 1009.1 |
| 20260504204508 | 82 | 119 | 3.5 | 16.5 | 0.00 | 0.00 | 0.00 | 55 | 1009.2 |
| 20260504204004 | 82 | 261 | 4.3 | 13.0 | 0.00 | 0.00 | 0.00 | 54 | 1009.4 |
| 20260504203504 | 82 | 186 | 2.6 | 9.6 | 0.00 | 0.00 | 0.00 | 54 | 1009.3 |
| 20260504202505 | 83 | 202 | 5.2 | 9.6 | 0.00 | 0.00 | 0.00 | 52 | 1009.7 |
| 20260504202006 | 83 | 155 | 1.7 | 8.7 | 0.00 | 0.00 | 0.00 | 53 | 1009.8 |
| 20260504201511 | 83 | 360 | 1.7 | 13.0 | 0.00 | 0.00 | 0.00 | 53 | 1009.8 |
| 20260504201004 | 82 | 180 | 3.5 | 15.6 | 0.00 | 0.00 | 0.00 | 53 | 1010.0 |
| 20260504200506 | 82 | 116 | 5.2 | 15.6 | 0.00 | 0.00 | 0.00 | 53 | 1010.2 |
| 20260504200023 | 82 | 180 | 5.2 | 12.2 | 0.00 | 0.00 | 0.00 | 52 | 1010.1 |
| 20260504195504 | 82 | 360 | 5.2 | 10.4 | 0.00 | 0.00 | 0.00 | 52 | 1010.2 |
| 20260504195003 | 82 | 147 | 5.2 | 9.6 | 0.00 | 0.00 | 0.00 | 53 | 1010.2 |
| 20260504194508 | 82 | 169 | 0.9 | 12.2 | 0.00 | 0.00 | 0.00 | 53 | 1010.3 |
| 20260504194005 | 82 | 277 | 3.5 | 13.0 | 0.00 | 0.00 | 0.00 | 53 | 1010.4 |
| 20260504193504 | 81 | 160 | 2.6 | 13.9 | 0.00 | 0.00 | 0.00 | 53 | 1010.4 |
| 20260504193010 | 81 | 115 | 5.2 | 13.9 | 0.00 | 0.00 | 0.00 | 53 | 1010.4 |
| 20260504192505 | 81 | 33 | 3.5 | 13.0 | 0.00 | 0.00 | 0.00 | 53 | 1010.8 |
| 20260504192007 | 81 | 360 | 5.2 | 13.0 | 0.00 | 0.00 | 0.00 | 52 | 1010.7 |
| 20260504191527 | 82 | 176 | 5.2 | 13.0 | 0.00 | 0.00 | 0.00 | 51 | 1010.8 |
| 20260504191005 | 82 | 360 | 2.6 | 9.6 | 0.00 | 0.00 | 0.00 | 52 | 1010.9 |
| 20260504190507 | 81 | 109 | 1.7 | 11.3 | 0.00 | 0.00 | 0.00 | 52 | 1010.9 |
| 20260504190015 | 81 | 360 | 2.6 | 11.3 | 0.00 | 0.00 | 0.00 | 52 | 1011.0 |
| 20260504185508 | 81 | 352 | 2.6 | 11.3 | 0.00 | 0.00 | 0.00 | 52 | 1010.9 |
| 20260504185004 | 81 | 157 | 1.7 | 15.6 | 0.00 | 0.00 | 0.00 | 51 | 1011.0 |
| 20260504184515 | 81 | 220 | 4.3 | 15.6 | 0.00 | 0.00 | 0.00 | 51 | 1011.0 |
| 20260504184004 | 81 | 360 | 4.3 | 13.0 | 0.00 | 0.00 | 0.00 | 50 | 1011.2 |
| 20260504183504 | 81 | 123 | 3.5 | 13.0 | 0.00 | 0.00 | 0.00 | 49 | 1011.2 |
| 20260504183012 | 81 | 360 | 7.0 | 13.0 | 0.00 | 0.00 | 0.00 | 49 | 1011.3 |
| 20260504182503 | 81 | 360 | 2.6 | 8.7 | 0.00 | 0.00 | 0.00 | 50 | 1011.4 |
| 20260504182006 | 81 | 177 | 4.3 | 12.2 | 0.00 | 0.00 | 0.00 | 50 | 1011.6 |
| 20260504181522 | 80 | 180 | 2.6 | 12.2 | 0.00 | 0.00 | 0.00 | 50 | 1011.7 |
| 20260504181005 | 80 | 166 | 4.3 | 11.3 | 0.00 | 0.00 | 0.00 | 50 | 1011.7 |
| 20260504180511 | 80 | 154 | 2.6 | 9.6 | 0.00 | 0.00 | 0.00 | 50 | 1011.7 |
| 20260504180020 | 80 | 190 | 2.6 | 13.0 | 0.00 | 0.00 | 0.00 | 50 | 1011.9 |
| 20260504175503 | 80 | 186 | 4.3 | 13.0 | 0.00 | 0.00 | 0.00 | 50 | 1012.0 |
| 20260504175004 | 79 | 163 | 6.1 | 13.0 | 0.00 | 0.00 | 0.00 | 50 | 1012.1 |
| 20260504174519 | 79 | 186 | 2.6 | 10.4 | 0.00 | 0.00 | 0.00 | 51 | 1012.1 |
| 20260504174004 | 79 | 229 | 2.6 | 10.4 | 0.00 | 0.00 | 0.00 | 52 | 1012.2 |
| 20260504173506 | 78 | 360 | 2.6 | 10.4 | 0.00 | 0.00 | 0.00 | 52 | 1012.2 |
| 20260504173018 | 78 | 169 | 4.3 | 10.4 | 0.00 | 0.00 | 0.00 | 52 | 1012.3 |
| 20260504172509 | 78 | 360 | 5.2 | 13.0 | 0.00 | 0.00 | 0.00 | 52 | 1012.4 |
| 20260504172002 | 78 | 164 | 3.5 | 10.4 | 0.00 | 0.00 | 0.00 | 53 | 1012.3 |
| 20260504171508 | 78 | 144 | 2.6 | 11.3 | 0.00 | 0.00 | 0.00 | 53 | 1012.5 |
| 20260504171008 | 78 | 360 | 3.5 | 11.3 | 0.00 | 0.00 | 0.00 | 53 | 1012.7 |
| 20260504170504 | 77 | 126 | 5.2 | 13.0 | 0.00 | 0.00 | 0.00 | 53 | 1012.7 |
| 20260504151006 | 72 | 142 | 0.9 | 8.7 | 0.00 | 0.00 | 0.00 | 64 | 1014.0 |
| 20260504150509 | 72 | 148 | 1.7 | 16.5 | 0.00 | 0.00 | 0.00 | 64 | 1013.9 |
| 20260504141013 | 69 | 207 | 2.6 | 10.4 | 0.00 | 0.00 | 0.00 | 67 | 1014.3 |
| 20260504140508 | 69 | 142 | 2.6 | 10.4 | 0.00 | 0.00 | 0.00 | 67 | 1014.2 |
| 20260504130510 | 66 | 257 | 0.0 | 8.7 | 0.00 | 0.00 | 0.00 | 73 | 1014.4 |
| 20260504110503 | 61 | 193 | 0.0 | 6.1 | 0.00 | 0.00 | 0.00 | 75 | 1013.9 |
| 20260504100504 | 62 | 199 | 0.0 | 3.5 | 0.00 | 0.00 | 0.00 | 74 | 1014.3 |
| 20260504082005 | 64 | 360 | 0.0 | 7.8 | 0.00 | 0.00 | 0.00 | 68 | 1014.6 |
| 20260504081526 | 64 | 180 | 0.0 | 7.8 | 0.00 | 0.00 | 0.00 | 68 | 1014.6 |
| 20260504081006 | 64 | 360 | 0.9 | 5.2 | 0.00 | 0.00 | 0.00 | 67 | 1014.6 |
| 20260504080510 | 64 | 288 | 0.0 | 5.2 | 0.00 | 0.00 | 0.00 | 67 | 1014.6 |
| 20260504050507 | 68 | 360 | 0.9 | 4.3 | 0.00 | 0.00 | 0.00 | 60 | 1016.5 |
| 20260504050021 | 68 | 202 | 0.0 | 2.6 | 0.00 | 0.00 | 0.00 | 60 | 1016.5 |